Torna al catalogo

MERIDIAN 10

AttivoMilitareHEO
NORAD 52145·PAYLOAD·🇷🇺 Russia

Lanciato Mar 22, 2022 da Plesetsk Cosmodrome

Loading…

Prossimi Passaggi (prossime 24 ore)

TLE

AggiornatoSource: Space-Track

Epoca: Sep 13, 2026, 16:48 UTC

1 52145U 22030A   26256.70005921  .00000122  00000-0  00000-0 0  9994
2 52145  62.6815 131.1872 6809425 272.8222  17.4901  2.00594494 32801

Traccia MERIDIAN 10 in tempo reale con AllMySat

Download on the App Store